• în România
  • Lista ţărilor
  • Pe 7 zile
  • Temperatura apei
  • Hartă satelitară
  • Meteo pe hartă
  • Widget-uri
  • user-avatar
    Intrare

    Meteo pe oră la Innsbruck

    Astăzi, 21 Noiembrie, Marţi

    Timp Temperatura Precipitaţii Vânt Presiune Umiditate
    00:00 -6°C° 0,1 mm 2 m/s 593 mmHg 82%
    01:00 -5°C° 0 mm 2 m/s 593 mmHg 83%
    02:00 -5°C° 0,5 mm 2 m/s 593 mmHg 85%
    03:00 -5°C° 0,5 mm 2 m/s 593 mmHg 88%
    04:00 -5°C° 0,5 mm 2 m/s 593 mmHg 90%
    05:00 -4°C° 0,5 mm 2 m/s 593 mmHg 91%
    06:00 -4°C° 0,5 mm 2 m/s 594 mmHg 91%
    07:00 -5°C° 0 mm 3 m/s 593 mmHg 90%
    08:00 -3°C° 0,2 mm 2 m/s 594 mmHg 90%
    09:00 -3°C° 0,2 mm 2 m/s 594 mmHg 90%
    10:00 -2°C° 0,2 mm 2 m/s 595 mmHg 90%
    11:00 -1°C° 0,2 mm 2 m/s 595 mmHg 90%
    12:00 -1°C° 0,2 mm 2 m/s 595 mmHg 91%
    13:00 +1°C° 0,2 mm 2 m/s 595 mmHg 91%
    14:00 -1°C° 0,2 mm 2 m/s 595 mmHg 91%
    15:00 -1°C° 0,2 mm 2 m/s 595 mmHg 91%
    16:00 -1°C° 0,2 mm 2 m/s 594 mmHg 91%
    17:00 -2°C° 0 mm 2 m/s 594 mmHg 90%
    18:00 -3°C° 0 mm 2 m/s 594 mmHg 89%
    19:00 -4°C° 0 mm 2 m/s 593 mmHg 88%
    20:00 -4°C° 0 mm 2 m/s 593 mmHg 87%
    21:00 -4°C° 0 mm 2 m/s 593 mmHg 85%
    22:00 -5°C° 0 mm 2 m/s 593 mmHg 84%
    23:00 -5°C° 0 mm 2 m/s 593 mmHg 82%

    Mâine, 22 Noiembrie, Miercuri

    Timp Temperatura Precipitaţii Vânt Presiune Umiditate
    00:00 -5°C° 0 mm 2 m/s 593 mmHg 81%
    01:00 -5°C° 0 mm 2 m/s 593 mmHg 79%
    02:00 -5°C° 0 mm 2 m/s 593 mmHg 78%
    03:00 -5°C° 0 mm 2 m/s 593 mmHg 76%
    04:00 -5°C° 0 mm 2 m/s 593 mmHg 75%
    05:00 -5°C° 0 mm 2 m/s 593 mmHg 74%
    06:00 -5°C° 0 mm 2 m/s 593 mmHg 72%
    07:00 -6°C° 0 mm 2 m/s 593 mmHg 71%
    08:00 -4°C° 0 mm 2 m/s 593 mmHg 72%
    09:00 -2°C° 0 mm 2 m/s 594 mmHg 73%
    10:00 -1°C° 0 mm 2 m/s 595 mmHg 74%
    11:00 +1°C° 0 mm 2 m/s 595 mmHg 78%
    12:00 +2°C° 0 mm 2 m/s 595 mmHg 82%
    13:00 +4°C° 0 mm 1 m/s 595 mmHg 85%
    14:00 +2°C° 0 mm 2 m/s 595 mmHg 83%
    15:00 +1°C° 0 mm 2 m/s 594 mmHg 81%
    16:00 -1°C° 0 mm 2 m/s 593 mmHg 79%
    17:00 -2°C° 0 mm 2 m/s 593 mmHg 79%
    18:00 -3°C° 0 mm 2 m/s 593 mmHg 79%
    19:00 -4°C° 0 mm 2 m/s 593 mmHg 79%
    20:00 -6°C° 0 mm 3 m/s 593 mmHg 80%
    21:00 -6°C° 0 mm 3 m/s 593 mmHg 80%
    22:00 -6°C° 0 mm 3 m/s 593 mmHg 80%
    23:00 -6°C° 0 mm 3 m/s 592 mmHg 81%

    Poimâine, 23 Noiembrie, Joi

    Timp Temperatura Precipitaţii Vânt Presiune Umiditate
    00:00 -6°C° 0 mm 3 m/s 592 mmHg 81%
    01:00 -6°C° 0 mm 3 m/s 592 mmHg 82%
    02:00 -6°C° 0 mm 3 m/s 592 mmHg 81%
    03:00 -6°C° 0 mm 3 m/s 592 mmHg 81%
    04:00 -6°C° 0 mm 3 m/s 592 mmHg 81%
    05:00 -7°C° 0 mm 3 m/s 592 mmHg 80%
    06:00 -7°C° 0 mm 3 m/s 592 mmHg 79%
    07:00 -6°C° 0 mm 2 m/s 592 mmHg 78%
    08:00 -4°C° 0 mm 2 m/s 593 mmHg 77%
    09:00 -3°C° 0 mm 2 m/s 594 mmHg 76%
    10:00 -1°C° 0 mm 2 m/s 595 mmHg 75%
    11:00 +2°C° 0 mm 1 m/s 595 mmHg 77%
    12:00 +3°C° 0 mm 1 m/s 595 mmHg 80%
    13:00 +4°C° 0 mm 1 m/s 596 mmHg 82%
    14:00 +3°C° 0 mm 1 m/s 595 mmHg 79%
    15:00 +1°C° 0 mm 1 m/s 595 mmHg 76%
    16:00 0°C° 0 mm 1 m/s 595 mmHg 73%
    17:00 -1°C° 0 mm 1 m/s 595 mmHg 72%
    18:00 -2°C° 0 mm 1 m/s 595 mmHg 71%
    19:00 -2°C° 0 mm 1 m/s 595 mmHg 70%
    20:00 -3°C° 0 mm 1 m/s 595 mmHg 70%
    21:00 -3°C° 0 mm 1 m/s 595 mmHg 70%
    22:00 -5°C° 0 mm 2 m/s 595 mmHg 69%
    23:00 -5°C° 0 mm 2 m/s 595 mmHg 69%

    24 Noiembrie, Vineri

    Timp Temperatura Precipitaţii Vânt Presiune Umiditate
    00:00 -5°C° 0 mm 2 m/s 595 mmHg 69%
    01:00 -5°C° 0 mm 2 m/s 595 mmHg 69%
    02:00 -5°C° 0 mm 2 m/s 595 mmHg 68%
    03:00 -5°C° 0 mm 2 m/s 595 mmHg 68%
    04:00 -5°C° 0 mm 2 m/s 595 mmHg 68%
    05:00 -5°C° 0 mm 2 m/s 595 mmHg 68%
    06:00 -5°C° 0 mm 2 m/s 595 mmHg 69%
    07:00 -5°C° 0 mm 2 m/s 595 mmHg 69%
    08:00 -4°C° 0 mm 2 m/s 596 mmHg 69%
    09:00 -3°C° 0 mm 2 m/s 596 mmHg 70%
    10:00 -1°C° 0 mm 2 m/s 597 mmHg 71%
    11:00 +1°C° 0 mm 2 m/s 597 mmHg 72%
    12:00 +2°C° 0 mm 2 m/s 597 mmHg 73%
    13:00 +3°C° 0 mm 2 m/s 597 mmHg 75%
    14:00 +2°C° 0 mm 2 m/s 597 mmHg 76%
    15:00 +1°C° 0 mm 2 m/s 596 mmHg 77%
    16:00 -2°C° 0 mm 2 m/s 596 mmHg 78%
    17:00 -2°C° 0 mm 2 m/s 596 mmHg 77%
    18:00 -3°C° 0 mm 2 m/s 596 mmHg 77%
    19:00 -3°C° 0 mm 2 m/s 596 mmHg 76%
    20:00 -3°C° 0 mm 2 m/s 596 mmHg 76%
    21:00 -3°C° 0 mm 2 m/s 596 mmHg 77%
    22:00 -4°C° 0 mm 2 m/s 596 mmHg 77%
    23:00 -3°C° 0 mm 2 m/s 595 mmHg 77%

    25 Noiembrie, Sâmbătă

    Timp Temperatura Precipitaţii Vânt Presiune Umiditate
    00:00 -3°C° 0 mm 2 m/s 595 mmHg 78%
    01:00 -3°C° 0 mm 2 m/s 595 mmHg 79%
    02:00 -3°C° 0 mm 2 m/s 595 mmHg 79%
    03:00 -3°C° 0 mm 2 m/s 595 mmHg 80%
    04:00 -3°C° 0 mm 2 m/s 595 mmHg 81%
    05:00 -4°C° 0 mm 3 m/s 595 mmHg 81%
    06:00 -5°C° 0 mm 3 m/s 594 mmHg 82%
    07:00 -5°C° 0 mm 3 m/s 594 mmHg 83%
    08:00 -4°C° 0 mm 3 m/s 595 mmHg 83%
    09:00 -2°C° 0 mm 3 m/s 595 mmHg 82%
    10:00 0°C° 0 mm 3 m/s 595 mmHg 81%
    11:00 0°C° 0 mm 3 m/s 595 mmHg 83%
    12:00 +1°C° 0 mm 3 m/s 595 mmHg 84%
    13:00 +2°C° 0 mm 3 m/s 595 mmHg 85%
    14:00 +1°C° 0 mm 3 m/s 595 mmHg 87%
    15:00 +1°C° 0 mm 2 m/s 595 mmHg 89%
    16:00 -1°C° 0 mm 2 m/s 595 mmHg 91%
    17:00 -1°C° 0,1 mm 2 m/s 595 mmHg 92%
    18:00 -2°C° 0,1 mm 2 m/s 596 mmHg 93%
    19:00 0°C° 0,1 mm 1 m/s 596 mmHg 93%
    20:00 -1°C° 0,1 mm 1 m/s 596 mmHg 94%
    21:00 -1°C° 0,1 mm 1 m/s 596 mmHg 94%
    22:00 -1°C° 0,1 mm 1 m/s 596 mmHg 94%
    23:00 -1°C° 0,1 mm 1 m/s 596 mmHg 94%

    26 Noiembrie, Duminică

    Timp Temperatura Precipitaţii Vânt Presiune Umiditate
    00:00 -1°C° 0,1 mm 1 m/s 596 mmHg 95%
    01:00 -2°C° 0,1 mm 1 m/s 596 mmHg 95%
    02:00 -2°C° 0,1 mm 1 m/s 596 mmHg 95%
    03:00 -2°C° 0,1 mm 1 m/s 596 mmHg 95%
    04:00 -2°C° 0,1 mm 1 m/s 596 mmHg 95%
    05:00 -2°C° 0,3 mm 1 m/s 595 mmHg 96%
    06:00 -2°C° 0,3 mm 1 m/s 595 mmHg 96%
    07:00 -2°C° 0,3 mm 1 m/s 595 mmHg 96%
    08:00 -2°C° 1,2 mm 1 m/s 595 mmHg 95%
    09:00 -2°C° 1,2 mm 1 m/s 595 mmHg 95%
    10:00 -2°C° 1,2 mm 1 m/s 596 mmHg 95%
    11:00 -4°C° 1,5 mm 2 m/s 595 mmHg 94%
    12:00 -5°C° 1,5 mm 2 m/s 595 mmHg 94%
    13:00 -5°C° 1,5 mm 2 m/s 595 mmHg 94%
    14:00 -5°C° 0,7 mm 2 m/s 595 mmHg 94%
    15:00 -6°C° 0,7 mm 2 m/s 595 mmHg 94%
    16:00 -6°C° 0,7 mm 2 m/s 595 mmHg 93%
    17:00 -7°C° 0,2 mm 2 m/s 595 mmHg 93%
    18:00 -9°C° 0,2 mm 3 m/s 595 mmHg 93%
    19:00 -10°C° 0,2 mm 3 m/s 595 mmHg 93%
    20:00 -10°C° 0 mm 2 m/s 595 mmHg 93%
    21:00 -12°C° 0 mm 2 m/s 595 mmHg 93%
    22:00 -14°C° 0 mm 2 m/s 595 mmHg 92%
    23:00 -14°C° 0 mm 2 m/s 595 mmHg 89%
    Arată mai mult